Stündliche Wetter Cemsa

Heute, 23 Januar, Samstag

Zeit Temperatur Niederschläge Wind Luftdruck Luftfeuchtigkeit
00:00 -8°C° 0 mm 3 m/S 613 mmHg 19%
01:00 -8°C° 0 mm 3 m/S 613 mmHg 20%
02:00 -8°C° 0 mm 3 m/S 612 mmHg 20%
03:00 -8°C° 0 mm 3 m/S 612 mmHg 20%
04:00 -8°C° 0 mm 3 m/S 612 mmHg 20%
05:00 -8°C° 0 mm 3 m/S 612 mmHg 19%
06:00 -8°C° 0 mm 3 m/S 612 mmHg 18%
07:00 -6°C° 0 mm 2 m/S 613 mmHg 21%
08:00 -5°C° 0 mm 2 m/S 613 mmHg 24%
09:00 -4°C° 0 mm 2 m/S 613 mmHg 27%
10:00 -3°C° 0 mm 2 m/S 613 mmHg 33%
11:00 -1°C° 0 mm 2 m/S 614 mmHg 39%
12:00 +1°C° 0 mm 2 m/S 614 mmHg 46%
13:00 +1°C° 0 mm 2 m/S 613 mmHg 50%
14:00 -1°C° 0 mm 2 m/S 613 mmHg 54%
15:00 -1°C° 0 mm 2 m/S 612 mmHg 58%
16:00 -3°C° 0 mm 2 m/S 612 mmHg 49%
17:00 -5°C° 0 mm 2 m/S 611 mmHg 39%
18:00 -7°C° 0 mm 2 m/S 611 mmHg 29%
19:00 -7°C° 0 mm 2 m/S 611 mmHg 26%
20:00 -7°C° 0 mm 2 m/S 611 mmHg 22%
21:00 -7°C° 0 mm 2 m/S 611 mmHg 19%
22:00 -7°C° 0 mm 2 m/S 611 mmHg 19%
23:00 -6°C° 0 mm 2 m/S 611 mmHg 19%

Morgen, 24 Januar, Sonntag

Zeit Temperatur Niederschläge Wind Luftdruck Luftfeuchtigkeit
00:00 -6°C° 0 mm 2 m/S 611 mmHg 20%
01:00 -6°C° 0 mm 2 m/S 611 mmHg 20%
02:00 -6°C° 0 mm 2 m/S 610 mmHg 20%
03:00 -6°C° 0 mm 2 m/S 610 mmHg 20%
04:00 -6°C° 0 mm 2 m/S 610 mmHg 21%
05:00 -6°C° 0 mm 2 m/S 610 mmHg 23%
06:00 -6°C° 0 mm 2 m/S 610 mmHg 24%
07:00 -5°C° 0 mm 2 m/S 610 mmHg 28%
08:00 -4°C° 0 mm 2 m/S 611 mmHg 33%
09:00 -3°C° 0 mm 2 m/S 611 mmHg 37%
10:00 -1°C° 0 mm 2 m/S 611 mmHg 42%
11:00 +1°C° 0 mm 2 m/S 612 mmHg 46%
12:00 +2°C° 0 mm 2 m/S 612 mmHg 51%
13:00 +2°C° 0 mm 2 m/S 611 mmHg 55%
14:00 +2°C° 0 mm 2 m/S 611 mmHg 58%
15:00 +2°C° 0 mm 2 m/S 611 mmHg 61%
16:00 -1°C° 0 mm 2 m/S 610 mmHg 54%
17:00 -2°C° 0 mm 2 m/S 610 mmHg 47%
18:00 -4°C° 0 mm 2 m/S 610 mmHg 39%
19:00 -4°C° 0 mm 2 m/S 610 mmHg 39%
20:00 -4°C° 0 mm 2 m/S 610 mmHg 38%
21:00 -5°C° 0 mm 3 m/S 610 mmHg 37%
22:00 -4°C° 0 mm 2 m/S 610 mmHg 38%
23:00 -3°C° 0 mm 2 m/S 610 mmHg 38%

übermorgen, 25 Januar, Montag

Zeit Temperatur Niederschläge Wind Luftdruck Luftfeuchtigkeit
00:00 -3°C° 0 mm 2 m/S 610 mmHg 39%
01:00 -3°C° 0 mm 2 m/S 610 mmHg 39%
02:00 -3°C° 0 mm 2 m/S 610 mmHg 39%
03:00 -3°C° 0 mm 2 m/S 610 mmHg 39%
04:00 -3°C° 0 mm 2 m/S 609 mmHg 38%
05:00 -3°C° 0 mm 2 m/S 609 mmHg 37%
06:00 -3°C° 0 mm 2 m/S 609 mmHg 35%
07:00 -3°C° 0 mm 2 m/S 610 mmHg 37%
08:00 -2°C° 0 mm 2 m/S 610 mmHg 39%
09:00 -1°C° 0 mm 2 m/S 611 mmHg 41%
10:00 +2°C° 0 mm 1 m/S 611 mmHg 47%
11:00 +4°C° 0 mm 1 m/S 611 mmHg 53%
12:00 +5°C° 0 mm 1 m/S 611 mmHg 60%
13:00 +5°C° 0 mm 1 m/S 610 mmHg 61%
14:00 +4°C° 0 mm 1 m/S 610 mmHg 62%
15:00 +3°C° 0 mm 2 m/S 610 mmHg 63%
16:00 +1°C° 0 mm 2 m/S 609 mmHg 54%
17:00 -1°C° 0 mm 2 m/S 609 mmHg 45%
18:00 -4°C° 0 mm 3 m/S 608 mmHg 36%
19:00 -4°C° 0 mm 3 m/S 608 mmHg 35%
20:00 -4°C° 0 mm 3 m/S 609 mmHg 35%
21:00 -4°C° 0 mm 3 m/S 609 mmHg 34%
22:00 -4°C° 0 mm 3 m/S 609 mmHg 35%
23:00 -4°C° 0 mm 3 m/S 609 mmHg 36%

26 Januar, Dienstag

Zeit Temperatur Niederschläge Wind Luftdruck Luftfeuchtigkeit
00:00 -4°C° 0 mm 3 m/S 609 mmHg 37%
01:00 -5°C° 0 mm 3 m/S 609 mmHg 38%
02:00 -5°C° 0 mm 3 m/S 609 mmHg 39%
03:00 -5°C° 0 mm 3 m/S 609 mmHg 40%
04:00 -5°C° 0 mm 3 m/S 609 mmHg 39%
05:00 -4°C° 0 mm 2 m/S 609 mmHg 37%
06:00 -4°C° 0 mm 2 m/S 609 mmHg 36%
07:00 -3°C° 0 mm 2 m/S 609 mmHg 38%
08:00 -2°C° 0 mm 2 m/S 609 mmHg 40%
09:00 -1°C° 0 mm 2 m/S 610 mmHg 42%
10:00 +1°C° 0 mm 2 m/S 610 mmHg 48%
11:00 +2°C° 0 mm 2 m/S 610 mmHg 54%
12:00 +3°C° 0 mm 2 m/S 610 mmHg 60%
13:00 +3°C° 0 mm 2 m/S 610 mmHg 61%
14:00 +3°C° 0 mm 2 m/S 610 mmHg 62%
15:00 +3°C° 0 mm 2 m/S 609 mmHg 63%
16:00 +2°C° 0 mm 2 m/S 609 mmHg 59%
17:00 0°C° 0 mm 3 m/S 609 mmHg 54%
18:00 -1°C° 0 mm 3 m/S 609 mmHg 50%
19:00 -1°C° 0 mm 3 m/S 609 mmHg 50%
20:00 -1°C° 0 mm 3 m/S 609 mmHg 50%
21:00 -1°C° 0 mm 2 m/S 609 mmHg 50%
22:00 -1°C° 0 mm 2 m/S 609 mmHg 50%
23:00 -1°C° 0 mm 2 m/S 609 mmHg 50%

27 Januar, Mittwoch

Zeit Temperatur Niederschläge Wind Luftdruck Luftfeuchtigkeit
00:00 -1°C° 0 mm 2 m/S 609 mmHg 51%
01:00 -1°C° 0 mm 2 m/S 609 mmHg 50%
02:00 -1°C° 0 mm 2 m/S 609 mmHg 50%
03:00 -1°C° 0 mm 2 m/S 609 mmHg 50%
04:00 -2°C° 0 mm 2 m/S 608 mmHg 50%
05:00 -2°C° 0 mm 2 m/S 608 mmHg 49%
06:00 -2°C° 0 mm 3 m/S 607 mmHg 49%
07:00 -2°C° 0 mm 3 m/S 608 mmHg 51%
08:00 -1°C° 0 mm 3 m/S 608 mmHg 53%
09:00 -1°C° 0 mm 3 m/S 608 mmHg 54%
10:00 0°C° 0 mm 3 m/S 608 mmHg 58%
11:00 +1°C° 0 mm 3 m/S 608 mmHg 61%
12:00 +2°C° 0 mm 3 m/S 607 mmHg 64%
13:00 +2°C° 0 mm 3 m/S 607 mmHg 65%
14:00 +2°C° 0 mm 3 m/S 606 mmHg 65%
15:00 +1°C° 0 mm 3 m/S 606 mmHg 66%
16:00 0°C° 0 mm 4 m/S 606 mmHg 70%
17:00 -1°C° 0 mm 4 m/S 605 mmHg 74%
18:00 -2°C° 0 mm 4 m/S 605 mmHg 78%
19:00 -2°C° 0 mm 4 m/S 605 mmHg 72%
20:00 -3°C° 0 mm 4 m/S 604 mmHg 65%
21:00 -3°C° 0 mm 4 m/S 604 mmHg 58%
22:00 -2°C° 0.1 mm 4 m/S 603 mmHg 57%
23:00 -1°C° 0.1 mm 3 m/S 603 mmHg 55%

28 Januar, Donnerstag

Zeit Temperatur Niederschläge Wind Luftdruck Luftfeuchtigkeit
00:00 0°C° 0.1 mm 3 m/S 603 mmHg 53%
01:00 -2°C° 1.3 mm 4 m/S 602 mmHg 62%
02:00 -2°C° 1.3 mm 4 m/S 602 mmHg 71%
03:00 -2°C° 1.3 mm 4 m/S 602 mmHg 80%
04:00 -2°C° 1.1 mm 4 m/S 601 mmHg 83%
05:00 -3°C° 1.1 mm 4 m/S 601 mmHg 86%
06:00 -3°C° 1.1 mm 4 m/S 601 mmHg 89%
07:00 -2°C° 1.2 mm 4 m/S 601 mmHg 89%
08:00 -2°C° 1.2 mm 4 m/S 601 mmHg 89%
09:00 -1°C° 1.2 mm 4 m/S 601 mmHg 89%
10:00 -1°C° 0.3 mm 4 m/S 601 mmHg 88%
11:00 -1°C° 0.3 mm 4 m/S 601 mmHg 87%
12:00 0°C° 0.3 mm 4 m/S 601 mmHg 86%
13:00 -1°C° 0.1 mm 4 m/S 600 mmHg 87%
14:00 -1°C° 0.1 mm 4 m/S 600 mmHg 88%
15:00 -1°C° 0.1 mm 4 m/S 600 mmHg 89%
16:00 -1°C° 0.6 mm 3 m/S 600 mmHg 90%
17:00 -1°C° 0.6 mm 3 m/S 600 mmHg 91%
18:00 -2°C° 0.6 mm 3 m/S 600 mmHg 92%
19:00 -2°C° 0.6 mm 3 m/S 600 mmHg 92%
20:00 -4°C° 0.6 mm 3 m/S 600 mmHg 92%
21:00 -4°C° 0.6 mm 3 m/S 600 mmHg 92%
Mehr zeigen

Wir brauchen deine Erlaubnis

Meteoprog und unser Service Anbieter werden persönliche Daten aufbewahren, so wie Cookies, Geräte Bezeichnung oder ähnliche Technologien von deinem Gerät und Prozess, so wie Persönliche Daten Inhalte und Werbungen, genauso wie social Media und den Verkehr zu analysieren.

  • Aufbewahrung und/oder Zugang zu deiner Geräte Informationen.

    Cookies, Geräte Bezeichnung oder andere Informationen, können aufbewahrt oder Zugang zu deinem Gerät erhalten, für den Grund, der oben angegeben wird.

  • Personalisierte Werbung und Inhalte, Messungen, Einblick in das Publikum und Produkt Entwicklung.

    Werbungen und Inhalte können personalisiert werden, basierend auf ein Profil. Mehr Daten können besser personalisierte Werbungen und Inhalte hinzufügen. Werbung und Inhalte können gezeigt und gemessen werden. Einblicke über das Publikum, welche die Werbung gesehen haben und den Inhalt, können abgeleitet werden. So wie Daten können genutzt werden, um es zu verbessern oder die Benutzer Erfahrung zu verbessern das System und die Software.

Wenn du “Ich stimme zu” klickst, erlaubst du uns, die Cookies zu benutzen die Geräte Bezeichnung, den Web oder ähnliche Technologien zu benutzen. Deine Settings, können in deinem Gerät bei deinem Browser geändert werden.

Für den bestimmten Zweck, berechtigten Interessen beruhen darauf, mehr als auf den Inhalt. Du kannst mehr darüber in unseren Privaten und Cookie Politik lesen.